{"data":{"norad_id":57683,"intl_designator":"2023-124W","name":"STARLINK-30295","alt_names":[],"object_type":"PAYLOAD","status":"ACTIVE","operator":null,"country":"US","launch_date":"2023-08-22","launch_site_code":"AFWTR","launch_vehicle":null,"mission":null,"orbit_class":"UNKNOWN","rcs_meters":null,"size_class":null,"mass_kg":null,"dimensions":null,"purposes":["comms"],"wikipedia_slug":null,"has_3d_model":false,"image_url":null,"decayed_at":null,"tle_current":{"epoch":"2026-05-25T04:09:27.198144Z","epoch_age_seconds":53318,"freshness":"FRESH","line1":"1 57683U 23124W   26145.17323146  .00000133  00000+0  16622-4 0  9993","line2":"2 57683  53.1604 211.8093 0001065  94.8197 265.2925 15.30190680155278","mean_motion":15.3019068,"eccentricity":0.0001065,"inclination_deg":53.1604,"raan_deg":211.8093,"arg_perigee_deg":94.8197,"mean_anomaly_deg":265.2925,"bstar":1.6622e-5,"rev_number":15527,"period_min":94.105918878032,"perigee_km":474.51301244155,"apogee_km":475.9727823597,"semimajor_km":6853.3798974006,"source":"CELESTRAK","updated_at":"2026-05-25T13:38:18.370550Z"}}}